Overview Statistics Trail Chart Weather Telemetry Raw packets
 

This is the latest recevied weather packets stored in our database for station/object W5ITZ. If no packets are shown the sender has not sent any weather packets the latest 10 day(s).

<< 67 68 69 70 71 72 73 >>
Time Temp. Humidity Pressure Rain* Wind** Luminosity Snow
1787753441 29.44° C 82% 1017.1 hPa 0 mm - 148 W/m² -
1787753140 30° C 82% 1017.3 hPa 0 mm - 197 W/m² -
1787752840 29.44° C 83% 1017.2 hPa 0 mm - 333 W/m² -
1787752535 29.44° C 83% 1017.4 hPa 0 mm - 271 W/m² -
1787752231 29.44° C 83% 1017.2 hPa 0 mm - 140 W/m² -
1787751929 29.44° C 83% 1017.1 hPa 0 mm - 126 W/m² -
1787751624 29.44° C 84% 1016.7 hPa 0 mm - 154 W/m² -
1787751319 28.89° C 84% 1016.8 hPa 0 mm - 173 W/m² -
1787751015 28.89° C 84% 1016.8 hPa 0 mm - 236 W/m² -
1787750710 28.89° C 85% 1016.9 hPa 0 mm - 196 W/m² -
1787750409 28.89° C 85% 1016.9 hPa 0 mm - 193 W/m² -
1787750104 28.33° C 87% 1017 hPa 0 mm - 137 W/m² -
1787749801 27.78° C 87% 1016.8 hPa 0 mm - 158 W/m² -
1787749496 27.78° C 88% 1017.2 hPa 0 mm - 125 W/m² -
1787749195 27.78° C 90% 1016.9 hPa 0 mm - 108 W/m² -
1787748891 27.22° C 91% 1016.7 hPa 0 mm - 92 W/m² -
1787748585 26.67° C 92% 1016.8 hPa 0 mm - 76 W/m² -
1787748280 26.67° C 93% 1016.8 hPa 0 mm - 61 W/m² -
1787747977 26.11° C 93% 1016.6 hPa 0 mm - 42 W/m² -
1787747677 26.11° C 92% 1016.6 hPa 0 mm - 33 W/m² -
1787747371 26.11° C 92% 1016.6 hPa 0 mm - 27 W/m² -
1787747067 26.11° C 92% 1016.6 hPa 0 mm - 22 W/m² -
1787746763 26.11° C 92% 1016.7 hPa 0 mm - 17 W/m² -
1787746461 26.11° C 92% 1016.5 hPa 0 mm - 11 W/m² -
1787746155 26.11° C 92% 1016 hPa 0 mm - 8 W/m² -

* Rain latest hour (hover to see other rain measurements)
** Current wind speed in m/s (hover to see current wind gust speed)